Theta_e
319 319 319 319 320 320 320 321 321 322 323 323 323 323 323 323 321 309 302 310 311 330 331 308 307 307 305 303 298 294 290 287 292 293 293 296 296 301 305 305 305 308 310 315 341
318 318 319 319 319 320 320 320 321 322 322 322 323 323 322 322 305 300 317 331 332 334 307 306 305 305 300 298 296 293 290 291 295 296 293 295 296 298 302 303 304 313 336 341 341
317 318 318 318 319 319 319 320 321 322 322 322 322 322 322 318 299 299 330 333 334 329 309 308 305 301 296 295 295 291 291 295 297 297 296 296 297 298 300 298 303 311 331 335 333
316 317 317 318 318 319 319 319 320 321 321 321 322 322 323 304 293 302 340 339 340 320 309 303 302 297 294 295 294 293 295 297 297 299 295 295 298 298 297 299 307 316 335 333 331
316 316 317 317 317 318 318 319 319 320 320 321 322 323 310 301 301 307 333 322 311 307 304 302 300 296 294 294 295 296 295 297 297 297 295 300 297 297 299 304 307 314 336 333 332
316 316 316 316 317 318 317 317 317 317 319 321 323 323 305 295 307 311 309 310 306 304 304 303 303 301 298 295 297 297 295 296 297 297 296 296 297 298 300 302 303 305 315 333 335
316 316 316 316 317 317 317 317 316 317 319 323 324 314 304 301 312 312 308 305 306 306 304 303 304 302 299 295 298 297 294 296 296 296 295 298 296 297 300 301 301 302 302 304 318
316 315 315 316 317 317 317 317 317 318 321 324 324 308 302 311 312 309 308 308 309 307 306 305 305 302 298 298 298 295 292 289 296 298 297 296 289 297 302 299 299 300 300 302 302
316 315 315 316 317 317 316 316 318 321 323 323 306 300 300 315 307 309 307 306 309 309 309 310 304 298 299 294 291 291 288 289 293 297 296 295 290 298 304 303 302 302 304 302 301
316 315 315 315 316 315 315 315 318 318 317 315 308 300 306 306 308 310 309 309 307 306 306 303 299 297 294 292 286 287 287 289 289 295 295 292 291 298 302 302 301 302 304 307 305
315 315 315 315 315 314 309 306 304 303 304 302 300 303 306 311 310 307 309 308 306 303 296 298 298 292 294 292 293 292 290 289 292 295 292 291 293 297 299 301 300 302 303 305 308
314 314 315 315 315 314 306 305 304 306 301 305 305 305 309 309 303 306 310 304 301 296 298 295 292 297 299 296 295 293 290 289 292 295 291 291 293 296 298 299 300 300 302 304 306
313 313 314 314 314 308 306 307 309 306 298 304 306 306 306 306 302 304 306 303 299 297 295 292 295 300 298 295 293 290 289 289 290 293 292 290 288 293 298 299 302 302 302 303 305
312 313 313 313 309 306 307 311 307 307 295 301 304 306 305 304 302 309 308 304 300 295 296 295 298 298 295 295 293 287 294 293 292 289 285 289 281 287 293 295 298 300 300 301 303
312 313 312 312 305 307 310 309 308 309 287 303 301 306 302 302 303 306 310 306 298 297 298 294 294 294 293 294 295 292 295 291 292 286 285 286 283 285 292 292 294 299 302 302 302
311 312 311 308 306 309 311 306 310 297 288 298 300 298 298 299 303 306 305 307 304 299 298 295 299 297 295 298 296 295 291 288 285 284 279 284 284 283 288 292 295 299 302 304 303
311 311 308 310 306 308 308 305 296 291 301 297 297 299 297 298 299 302 300 297 295 291 290 295 295 298 299 294 294 291 285 278 279 277 277 285 284 283 292 296 297 299 300 302 303
309 308 307 310 307 310 307 300 290 297 296 302 300 299 297 300 299 300 297 294 298 295 290 288 288 294 298 293 289 287 285 279 276 275 279 285 280 287 295 296 298 300 299 300 300
307 308 310 312 313 311 304 293 293 296 300 300 298 295 295 299 298 297 296 295 297 295 290 287 289 295 297 296 293 288 284 286 282 280 278 281 286 293 295 294 295 297 298 297 297
308 311 310 309 312 310 301 297 296 303 302 301 294 296 292 295 294 294 294 300 297 299 296 291 285 293 296 295 295 291 292 282 281 276 276 280 282 284 289 291 293 294 295 296 297
309 307 310 308 310 305 298 295 299 303 304 299 295 295 294 293 293 292 295 299 301 298 296 291 286 287 290 289 287 289 286 285 284 281 277 276 280 289 290 292 293 294 295 295 296
301 300 308 307 299 296 297 301 301 301 302 301 300 297 294 294 292 293 294 297 301 298 291 292 286 282 285 292 293 291 288 286 278 279 281 280 283 294 293 294 295 295 295 296 296
300 300 309 306 294 293 297 300 301 300 298 298 297 298 297 293 288 293 296 301 302 297 293 292 283 276 281 287 290 289 291 288 285 282 280 275 280 293 294 294 295 293 294 296 297
300 297 300 299 296 294 293 296 296 301 300 299 297 298 294 292 292 291 293 299 303 302 303 296 284 281 278 283 287 287 290 290 286 275 281 282 285 290 291 292 293 294 295 296 296
297 295 296 293 295 295 295 296 296 295 298 297 293 295 293 288 288 289 293 294 299 302 295 290 285 285 287 289 290 290 290 290 287 286 282 285 286 290 291 292 294 295 295 297 297
294 293 295 294 296 295 295 293 295 295 294 294 293 295 292 289 290 288 291 290 290 293 290 289 283 286 287 292 291 290 291 291 290 290 289 289 287 292 294 293 293 294 296 296 297
294 294 297 294 294 292 293 294 295 296 296 297 295 292 290 293 296 294 294 293 292 290 288 286 285 284 283 289 288 282 287 289 290 291 289 285 289 292 293 293 294 295 296 296 296
Wind_Speed
7 7 7 7 6 6 7 7 8 9 10 11 12 12 11 12 9 0 2 5 2 5 1 5 4 6 4 4 4 4 7 2 2 5 3 3 2 0 1 5 2 4 3 5 7
8 8 7 7 7 7 7 8 9 10 11 11 12 12 11 10 2 3 6 3 4 3 4 6 6 5 5 3 3 6 5 5 3 3 3 2 2 2 3 5 5 4 5 7 8
8 8 8 7 7 7 8 8 9 10 11 12 13 13 11 3 5 3 2 3 3 3 3 2 2 3 6 3 5 2 4 4 3 2 2 2 3 2 6 3 6 8 5 5 7
8 8 8 8 8 8 8 8 9 10 11 12 13 14 12 2 5 4 6 5 3 3 3 5 7 6 5 5 4 5 3 2 2 2 2 2 0 2 1 5 9 8 13 9 11
8 8 8 8 8 8 9 9 10 11 11 11 13 13 4 6 3 4 8 8 4 1 5 4 7 3 5 3 3 5 1 1 0 5 3 5 1 2 5 6 7 8 10 12 12
8 8 8 8 8 8 9 9 9 10 10 10 11 12 4 5 3 8 9 8 3 3 3 5 3 2 5 2 4 1 1 4 5 3 2 3 3 4 6 3 5 5 7 11 15
9 8 9 8 8 9 10 10 9 10 10 9 9 3 3 4 4 7 6 3 4 1 4 2 6 4 4 2 3 2 4 5 7 7 4 3 9 7 11 10 5 4 4 8 10
9 8 8 9 9 10 11 11 10 10 9 5 6 1 3 5 4 6 4 6 5 2 0 2 3 6 3 1 7 5 7 6 7 9 5 5 1 10 14 7 9 10 9 8 6
10 8 8 9 9 10 12 12 11 7 5 4 3 4 7 9 3 4 0 3 6 5 6 4 7 5 8 5 6 8 3 5 4 6 0 7 1 10 13 13 14 13 13 7 7
11 9 8 9 10 11 14 6 2 1 3 1 1 4 6 4 5 5 2 5 6 4 7 12 7 6 6 8 1 1 3 3 3 6 7 5 8 7 12 13 11 12 12 14 8
13 10 10 9 9 10 9 3 7 6 5 3 2 2 4 7 2 5 3 3 6 9 6 6 12 5 6 3 3 3 4 3 1 4 4 7 6 8 9 14 15 14 12 11 12
14 12 10 10 10 10 2 5 2 4 5 2 3 4 4 1 3 5 3 6 7 5 5 8 6 5 5 5 6 6 3 3 3 3 2 6 5 3 7 6 6 7 10 10 6
14 12 10 10 8 3 1 2 2 1 3 6 4 3 2 5 1 2 3 2 4 6 6 7 5 6 6 7 6 4 4 2 3 4 3 6 2 3 2 5 7 7 6 7 7
16 13 11 12 3 2 2 3 4 5 5 5 1 3 3 4 2 1 2 4 5 3 4 6 5 7 8 7 3 2 1 2 4 3 4 2 5 3 2 6 6 8 8 8 8
16 13 10 5 2 2 4 7 1 5 5 3 1 0 2 6 3 4 4 4 4 2 6 3 5 6 10 3 3 4 3 2 2 3 3 4 4 4 2 4 5 7 6 6 6
17 12 8 0 2 4 6 3 5 7 2 4 3 1 4 3 1 2 5 8 2 5 6 3 1 5 3 2 4 4 2 8 5 3 3 1 5 4 1 2 1 3 5 6 7
19 12 3 1 2 3 3 5 6 5 3 5 3 5 4 4 2 3 4 6 3 4 3 4 2 1 4 6 6 10 7 6 7 6 5 1 2 3 2 3 1 1 4 6 6
21 4 5 3 3 3 5 7 6 0 2 2 4 3 5 5 6 4 3 3 7 5 4 1 5 5 7 2 2 4 4 7 4 3 5 6 4 4 1 3 5 5 4 4 8
14 2 2 4 1 3 7 6 5 3 1 4 2 6 5 4 4 5 3 2 2 3 5 2 2 2 5 4 4 3 6 1 3 2 2 3 1 5 1 7 7 7 7 8 8
3 3 3 8 3 6 7 3 1 2 2 3 3 3 2 6 4 4 1 2 3 6 2 3 2 2 2 4 7 7 2 5 5 2 6 5 3 5 1 3 4 2 4 8 7
4 4 4 6 4 7 4 4 2 3 2 3 2 3 2 2 2 2 1 3 1 2 6 3 4 5 3 3 1 4 3 6 3 4 4 5 5 5 4 2 6 8 8 9 10
2 3 4 3 6 1 2 1 1 4 7 5 5 3 2 2 3 2 3 2 4 3 3 1 5 1 1 4 1 3 3 5 6 5 5 3 9 4 7 3 4 7 9 10 9
3 3 3 4 3 2 4 2 3 2 4 3 3 3 3 2 2 1 3 2 5 3 7 6 2 4 7 7 4 2 2 4 4 4 6 4 7 4 2 4 5 8 9 11 11
3 3 6 6 1 4 2 2 2 4 4 5 3 4 4 3 4 3 1 3 4 3 6 7 3 7 7 7 3 3 3 3 5 3 4 7 8 10 7 6 8 10 11 12 11
5 0 2 2 3 2 2 1 3 2 3 4 4 3 3 3 1 1 0 3 3 2 3 5 4 5 5 6 4 5 7 6 7 7 5 6 6 11 6 7 11 11 12 16 17
3 3 4 0 2 1 2 3 7 2 3 1 5 2 2 3 5 5 4 3 4 3 3 3 1 2 4 6 4 6 8 8 6 2 4 6 13 3 6 6 7 12 14 18 18
1 2 4 3 2 2 2 2 5 6 3 3 7 4 2 4 5 4 5 3 1 6 3 2 5 3 5 4 6 7 4 3 0 2 4 6 9 4 11 12 13 14 19 18 17
Wind_Direction
350 346 344 348 345 334 330 324 322 321 316 313 314 317 319 316 310 158 27 213 173 155 265 320 32 355 50 70 64 115 62 95 164 146 197 304 154 252 87 107 45 16 151 243 180
350 344 346 344 338 332 330 327 324 321 320 320 319 318 317 322 37 36 251 247 242 236 2 23 2 2 50 46 27 78 89 202 204 160 144 166 161 290 83 67 10 33 360 61 111
348 344 344 338 334 333 331 329 325 325 325 323 319 316 323 312 45 302 14 315 198 181 115 85 76 42 57 350 6 111 150 189 197 169 141 42 48 336 109 83 219 172 174 149 136
346 342 339 334 332 332 328 326 325 325 324 323 322 324 325 358 110 272 358 332 115 126 119 56 35 46 61 46 330 81 75 180 116 140 120 100 109 59 205 235 173 183 166 160 175
342 336 333 331 330 328 324 322 319 320 321 323 323 328 22 29 276 326 333 346 109 64 41 72 53 82 63 351 38 77 166 83 242 102 104 113 108 202 352 39 131 127 165 180 195
339 332 330 330 328 321 315 311 307 310 315 325 327 322 51 59 289 344 345 347 45 70 26 50 108 128 111 61 94 297 77 16 31 341 208 125 83 66 324 7 99 138 209 201 200
341 332 327 323 318 314 312 310 303 307 311 325 334 5 57 225 340 333 325 312 309 49 356 135 145 92 121 68 334 86 105 57 1 328 38 307 55 42 333 334 348 313 235 263 240
348 334 323 319 312 312 311 305 300 295 301 312 328 25 258 268 327 328 322 328 344 43 176 306 139 107 62 56 24 54 51 58 323 6 351 81 239 15 347 16 23 350 330 242 226
354 340 325 313 310 314 305 295 287 292 295 306 27 69 302 315 357 325 123 331 323 5 40 70 67 70 19 60 24 8 71 47 1 13 244 64 350 349 359 22 16 360 355 12 305
355 345 332 317 321 320 303 272 315 360 68 232 60 43 338 313 301 329 329 61 43 348 24 30 49 57 40 41 102 26 49 65 80 323 44 40 74 346 4 30 15 5 8 17 32
356 346 337 331 330 330 346 19 22 352 36 190 227 211 271 287 293 338 349 46 28 50 39 6 55 19 307 224 162 105 92 86 174 342 82 46 65 10 349 28 14 8 8 25 34
353 347 338 328 327 321 341 70 152 168 324 251 242 279 277 248 356 327 34 59 54 46 1 31 62 310 300 49 84 51 93 7 326 338 108 96 96 41 17 18 13 346 7 5 32
348 341 331 321 316 6 37 91 325 52 101 301 202 195 207 137 192 305 70 83 77 44 38 96 316 348 72 40 59 41 85 351 229 351 21 118 27 41 43 29 13 15 4 17 10
344 337 333 320 44 300 25 323 310 163 68 301 282 278 113 113 7 334 70 116 33 57 91 79 318 60 55 50 68 70 239 265 241 114 229 42 266 241 112 31 17 5 14 9 8
341 334 334 357 178 56 301 340 162 58 71 305 310 356 29 121 160 9 11 42 89 53 77 224 17 32 55 2 345 229 350 7 336 108 75 345 75 255 75 36 7 350 10 5 2
339 331 321 330 42 254 321 330 48 45 70 352 349 30 73 27 90 65 38 41 95 71 34 156 215 55 343 26 43 295 29 36 48 74 44 240 100 293 15 97 333 325 348 353 358
336 325 216 144 236 322 343 48 48 94 317 339 347 4 85 359 40 55 45 22 75 76 344 352 20 78 40 23 16 42 44 357 5 8 223 66 15 257 327 41 19 124 13 352 353
334 330 219 230 295 357 52 52 79 340 27 348 12 48 77 356 18 48 66 70 32 71 79 47 323 22 329 57 274 36 111 143 266 231 261 322 240 221 286 29 31 43 26 4 7
325 343 24 329 360 63 70 62 184 201 287 1 46 60 358 4 88 71 50 97 36 49 130 109 316 2 62 45 103 343 38 205 117 21 25 255 326 307 303 24 4 12 26 356 330
42 26 355 316 19 60 73 193 174 237 77 57 87 31 55 344 49 64 42 329 79 30 100 186 314 14 312 44 16 99 150 32 9 345 305 279 243 235 168 261 261 329 297 280 281
44 56 271 334 60 48 123 220 164 35 114 69 133 91 95 52 51 43 127 31 71 75 78 106 98 289 53 46 229 7 28 56 108 141 212 299 254 214 192 0 335 321 325 322 315
56 63 305 31 52 51 110 236 360 8 27 50 86 98 109 61 50 83 105 61 354 117 78 50 136 290 249 290 314 290 126 119 118 277 229 192 276 143 160 198 280 307 299 291 284
55 274 324 79 106 346 305 54 67 61 37 57 82 68 46 88 101 65 90 89 24 128 166 185 358 18 352 355 350 211 206 126 102 80 217 150 264 188 270 293 284 285 288 290 283
60 17 333 46 50 115 38 24 85 38 74 72 90 81 91 52 15 139 120 27 11 80 88 91 129 156 189 216 173 271 241 253 158 131 230 229 284 304 312 314 311 300 296 293 291
25 2 184 318 355 34 120 331 147 143 76 46 44 77 134 138 68 148 313 344 41 21 63 103 196 184 236 241 211 233 251 235 206 225 180 272 267 287 298 298 305 303 297 308 308
65 62 355 293 300 306 20 195 173 153 125 128 141 159 98 161 201 201 165 218 209 19 76 9 214 128 282 259 238 252 256 228 247 293 268 294 289 202 287 285 294 302 300 304 300
333 345 101 307 10 85 239 245 200 131 24 163 153 125 160 231 207 194 182 145 80 159 152 105 128 99 263 359 334 316 275 169 226 234 215 271 277 299 312 309 310 304 302 295 296